ROMMA est une association bénévole à but non lucratif. Votre soutien est indispensable : ADHERER à ROMMA ou FAIRE un DON

Crêts du Salève - (74, Haute-Savoie)

Salève (1270 m)   Longitude: 6° 10' 28'' E   Latitude: 46° 7' 42'' N Station romma n°73
 

Détail journalier du     <<     >>

Température Precipitation Humidité Vent Dir Rafale Dir. rafale Ensol.
Heure (°C) (mm) (%) (km/h) (km/h) (min)
01:00 6.20875NNE11NNE0
02:00 6.90867NNE13O0
03:00 6.20888SO15SO0
04:00 6.808411SO18SO0
05:00 7.208210SSE24SSE0
06:00 6.90847SSE15SSE0
07:00 8.407011SSE19SSE0
08:00 9.206111SO19SO0
09:00 9.206313SO18SO0
10:00 11.104715SO24SO60
11:00 12.603316SSO23SO0
12:00 14.40498SSO19SSO0
13:00 14.703910S29S20
14:00 13.203914S34SO30
15:00 14.706724SSO37SSO10
16:00 14.806916SSO29SSO60
17:00 15.207415SO31SO60
18:00 15.207624S50S50
19:00 15.007638S58S10
20:00 14.907438S60S0
21:00 15.106045S68SSE0
22:00 15.606651S79SSE0
23:00 15.306948SSO74S0
minuit 14.907355SO76SO0

Graphique du 08-10-2019

 

Serveur OMMA